SAS4097 ENEV-ENGM

Flight info

Callsign SAS4097
Flight time 0h 40m
Altitude 38000
Route GEPTU DCT GUBAV DCT SOMUB DCT BELGU
Aircraft A319/M-SDE3FGHIRWY/LB1

Departure

Time 2026-04-30 21:46
Airport Harstad/Narvik Airport (ENEV)

Arrival

Time 2026-04-30 22:27
Airport Oslo-Gardermoen International Airport (ENGM)
Time Latitude Longitude Altitude Speed Heading
2026-04-30 21:27 68.48984 16.68516 92 ft 0 kts 358°
2026-04-30 21:38 68.48980 16.68517 91 ft 3 kts 358°
2026-04-30 21:38 68.48953 16.68519 92 ft 4 kts 358°
2026-04-30 21:38 68.48932 16.68521 92 ft 4 kts 358°
2026-04-30 21:39 68.48911 16.68524 92 ft 4 kts 358°
2026-04-30 21:39 68.48904 16.68524 92 ft 1 kts 358°
2026-04-30 21:42 68.48905 16.68524 92 ft 2 kts 355°
2026-04-30 21:42 68.48905 16.68453 91 ft 6 kts 239°
2026-04-30 21:42 68.48891 16.68283 89 ft 11 kts 281°
2026-04-30 21:42 68.48948 16.68203 89 ft 11 kts 357°
2026-04-30 21:43 68.49036 16.68193 87 ft 14 kts 358°
2026-04-30 21:43 68.49139 16.68181 88 ft 16 kts 357°
2026-04-30 21:43 68.49258 16.68167 88 ft 19 kts 357°
2026-04-30 21:43 68.49397 16.68153 83 ft 21 kts 358°
2026-04-30 21:44 68.49547 16.68136 76 ft 23 kts 357°
2026-04-30 21:44 68.49713 16.68117 66 ft 24 kts 358°
2026-04-30 21:44 68.49877 16.68099 73 ft 23 kts 358°
2026-04-30 21:44 68.50037 16.68081 70 ft 22 kts 357°
2026-04-30 21:45 68.50182 16.68065 75 ft 19 kts 358°
2026-04-30 21:45 68.50305 16.68051 85 ft 16 kts 356°
2026-04-30 21:45 68.50379 16.67912 91 ft 12 kts 287°
2026-04-30 21:45 68.50372 16.67713 92 ft 11 kts 236°
2026-04-30 21:46 68.50272 16.67690 92 ft 31 kts 177°
2026-04-30 21:46 68.49839 16.67735 90 ft 91 kts 177°
2026-04-30 21:46 68.49024 16.67827 123 ft 139 kts 179°
2026-04-30 21:46 68.48091 16.67942 720 ft 134 kts 181°
2026-04-30 21:47 68.47154 16.68052 1303 ft 135 kts 182°
2026-04-30 21:47 68.46208 16.68153 1945 ft 139 kts 187°
2026-04-30 21:47 68.45170 16.68249 2279 ft 161 kts 184°
2026-04-30 21:47 68.43987 16.68105 2559 ft 180 kts 201°
2026-04-30 21:48 68.43046 16.65770 2810 ft 202 kts 246°
2026-04-30 21:48 68.43011 16.61723 3325 ft 232 kts 277°
2026-04-30 21:48 68.43305 16.57423 4305 ft 230 kts 264°
2026-04-30 21:48 68.43069 16.53173 5353 ft 227 kts 252°
2026-04-30 21:49 68.42541 16.49119 6334 ft 229 kts 245°
2026-04-30 21:49 68.41796 16.45251 7230 ft 233 kts 242°
2026-04-30 21:49 68.41106 16.41240 8126 ft 236 kts 248°
2026-04-30 21:49 68.40495 16.37064 9043 ft 239 kts 247°
2026-04-30 21:50 68.39665 16.33102 9899 ft 245 kts 237°
2026-04-30 21:50 68.38460 16.29664 10481 ft 262 kts 228°
2026-04-30 21:50 68.37058 16.26173 10755 ft 284 kts 227°
2026-04-30 21:50 68.34327 16.19678 11877 ft 297 kts 226°
2026-04-30 21:51 68.31121 16.12153 13404 ft 304 kts 226°
2026-04-30 21:51 68.27841 16.04951 14759 ft 312 kts 223°
2026-04-30 21:51 68.24328 15.97880 16065 ft 319 kts 223°
2026-04-30 21:51 68.20744 15.90715 17453 ft 323 kts 223°
2026-04-30 21:52 68.17113 15.83405 18721 ft 329 kts 223°
2026-04-30 21:52 68.13428 15.75979 19904 ft 334 kts 224°
2026-04-30 21:52 68.09401 15.69362 20997 ft 351 kts 211°
2026-04-30 21:52 68.04876 15.64209 22103 ft 357 kts 212°
2026-04-30 21:53 68.00276 15.58959 23184 ft 363 kts 212°
2026-04-30 21:53 67.95597 15.53638 24144 ft 368 kts 212°
2026-04-30 21:53 67.90845 15.48258 25045 ft 374 kts 212°
2026-04-30 21:53 67.86019 15.42818 25907 ft 379 kts 212°
2026-04-30 21:54 67.81135 15.37354 26731 ft 384 kts 212°
2026-04-30 21:54 67.75988 15.32793 27512 ft 396 kts 205°
2026-04-30 21:54 67.70744 15.28856 28330 ft 401 kts 205°
2026-04-30 21:54 67.67904 15.26724 28764 ft 403 kts 205°
2026-04-30 21:55 67.62479 15.22651 29592 ft 408 kts 205°
2026-04-30 21:55 67.56469 15.18163 30376 ft 414 kts 205°
2026-04-30 21:55 67.45272 15.09848 31496 ft 424 kts 205°
2026-04-30 21:55 67.33859 15.01501 33080 ft 424 kts 204°
2026-04-30 21:56 67.22525 14.93294 34664 ft 422 kts 204°
2026-04-30 21:56 67.11254 14.85174 35977 ft 421 kts 203°
2026-04-30 21:56 66.99965 14.77128 37063 ft 421 kts 202°
2026-04-30 21:56 66.95121 14.73695 37564 ft 420 kts 202°
2026-04-30 21:57 66.92305 14.71707 37820 ft 420 kts 202°
2026-04-30 21:57 66.89484 14.69723 38057 ft 420 kts 201°
2026-04-30 21:57 66.82411 14.64766 38151 ft 419 kts 202°
2026-04-30 21:58 66.60164 14.49378 38193 ft 418 kts 201°
2026-04-30 21:58 66.37795 14.34189 38135 ft 416 kts 201°
2026-04-30 21:59 66.15440 14.19282 38230 ft 419 kts 201°
2026-04-30 22:00 65.81703 13.97275 38213 ft 420 kts 201°
2026-04-30 22:00 65.49434 13.67668 38227 ft 413 kts 208°
2026-04-30 22:01 65.28039 13.47566 38213 ft 412 kts 207°
2026-04-30 22:01 65.06580 13.27700 38257 ft 414 kts 207°
2026-04-30 22:02 64.85134 13.08234 38253 ft 413 kts 207°
2026-04-30 22:02 64.63636 12.89022 38259 ft 413 kts 206°
2026-04-30 22:03 64.42122 12.70133 38244 ft 413 kts 206°
2026-04-30 22:03 64.20555 12.51489 38272 ft 415 kts 206°
2026-04-30 22:04 63.98896 12.33096 38289 ft 415 kts 206°
2026-04-30 22:05 63.66321 12.06009 38293 ft 417 kts 206°
2026-04-30 22:05 63.44502 11.88219 38283 ft 417 kts 206°
2026-04-30 22:06 63.22206 11.72734 38274 ft 423 kts 200°
2026-04-30 22:06 62.88143 11.52519 38283 ft 424 kts 200°
2026-04-30 22:07 62.65263 11.39154 38239 ft 426 kts 200°
2026-04-30 22:07 62.54268 11.32827 38277 ft 426 kts 200°
2026-04-30 22:08 62.41112 11.25276 38286 ft 427 kts 200°
2026-04-30 22:08 62.29630 11.18772 37256 ft 424 kts 199°
2026-04-30 22:08 62.21703 11.14302 35421 ft 435 kts 200°
2026-04-30 22:09 62.15914 11.11063 34585 ft 428 kts 201°
2026-04-30 22:09 62.10191 11.07877 33631 ft 422 kts 201°
2026-04-30 22:09 62.04559 11.04753 32732 ft 414 kts 201°
2026-04-30 22:09 61.99029 11.01688 31819 ft 407 kts 201°
2026-04-30 22:10 61.93585 10.98668 30929 ft 401 kts 201°
2026-04-30 22:10 61.88219 10.95704 30030 ft 396 kts 201°
2026-04-30 22:10 61.82934 10.92801 29207 ft 388 kts 201°
2026-04-30 22:10 61.77754 10.89978 28391 ft 382 kts 200°
2026-04-30 22:11 61.67637 10.84493 26905 ft 369 kts 200°
2026-04-30 22:11 61.62705 10.81832 26159 ft 363 kts 201°
2026-04-30 22:11 61.57857 10.79211 25410 ft 356 kts 201°
2026-04-30 22:12 61.53093 10.76641 24652 ft 351 kts 201°
2026-04-30 22:12 61.48406 10.74120 23850 ft 346 kts 200°
2026-04-30 22:12 61.43791 10.71657 23036 ft 339 kts 200°
2026-04-30 22:12 61.39328 10.69275 22266 ft 332 kts 200°
2026-04-30 22:13 61.34828 10.66883 21482 ft 326 kts 200°
2026-04-30 22:13 61.30518 10.64603 20727 ft 322 kts 200°
2026-04-30 22:13 61.26200 10.62330 19964 ft 318 kts 200°
2026-04-30 22:13 61.21834 10.60710 19187 ft 326 kts 185°
2026-04-30 22:14 61.17363 10.63025 18334 ft 340 kts 163°
2026-04-30 22:14 61.13007 10.66757 17479 ft 337 kts 164°
2026-04-30 22:14 61.08676 10.70389 16643 ft 334 kts 164°
2026-04-30 22:14 61.04387 10.73979 15905 ft 329 kts 164°
2026-04-30 22:15 61.00161 10.77521 15153 ft 324 kts 164°
2026-04-30 22:15 60.95985 10.81007 14254 ft 319 kts 164°
2026-04-30 22:15 60.91887 10.84439 13194 ft 315 kts 163°
2026-04-30 22:15 60.89168 10.86757 12570 ft 310 kts 163°
2026-04-30 22:16 60.85278 10.90072 11886 ft 300 kts 162°
2026-04-30 22:16 60.81654 10.93136 11284 ft 294 kts 162°
2026-04-30 22:17 60.76272 10.97628 10861 ft 267 kts 168°
2026-04-30 22:17 60.74464 10.98408 10648 ft 262 kts 175°
2026-04-30 22:17 60.70891 10.99689 10003 ft 264 kts 175°
2026-04-30 22:18 60.69023 11.00356 9656 ft 281 kts 175°
2026-04-30 22:18 60.65099 11.01756 8914 ft 289 kts 174°
2026-04-30 22:19 60.61140 11.03196 8171 ft 289 kts 174°
2026-04-30 22:19 60.59159 11.03915 7807 ft 289 kts 174°
2026-04-30 22:19 60.55251 11.05335 7315 ft 279 kts 174°
2026-04-30 22:20 60.53383 11.06015 7187 ft 266 kts 174°
2026-04-30 22:20 60.49852 11.07300 6641 ft 253 kts 174°
2026-04-30 22:20 60.48118 11.07929 6079 ft 256 kts 173°
2026-04-30 22:21 60.46427 11.09186 5510 ft 263 kts 151°
2026-04-30 22:21 60.45027 11.11553 5077 ft 261 kts 137°
2026-04-30 22:21 60.43750 11.14067 4787 ft 250 kts 138°
2026-04-30 22:21 60.42536 11.16444 4531 ft 236 kts 139°
2026-04-30 22:22 60.41232 11.18276 4275 ft 223 kts 159°
2026-04-30 22:22 60.39763 11.19075 4068 ft 216 kts 179°
2026-04-30 22:22 60.38292 11.18857 3993 ft 211 kts 197°
2026-04-30 22:22 60.36907 11.18069 3785 ft 203 kts 199°
2026-04-30 22:23 60.35559 11.17274 3551 ft 201 kts 200°
2026-04-30 22:23 60.34239 11.16502 3290 ft 195 kts 199°
2026-04-30 22:23 60.32949 11.15751 3024 ft 189 kts 199°
2026-04-30 22:23 60.31710 11.15030 2778 ft 180 kts 199°
2026-04-30 22:24 60.30570 11.14369 2550 ft 166 kts 199°
2026-04-30 22:24 60.29511 11.13753 2345 ft 152 kts 199°
2026-04-30 22:24 60.28549 11.13197 2143 ft 139 kts 198°
2026-04-30 22:24 60.27645 11.12668 1944 ft 133 kts 200°
2026-04-30 22:25 60.26762 11.12153 1764 ft 131 kts 200°
2026-04-30 22:25 60.25887 11.11655 1584 ft 130 kts 197°
2026-04-30 22:25 60.25023 11.11151 1415 ft 129 kts 197°
2026-04-30 22:25 60.24169 11.10652 1245 ft 127 kts 196°
2026-04-30 22:26 60.22483 11.09674 909 ft 126 kts 195°
2026-04-30 22:26 60.21640 11.09192 755 ft 126 kts 194°
2026-04-30 22:26 60.20838 11.08734 680 ft 105 kts 196°
2026-04-30 22:27 60.20300 11.08414 677 ft 56 kts 196°
2026-04-30 22:27 60.20084 11.08310 676 ft 18 kts 186°
2026-04-30 22:27 60.19891 11.08460 674 ft 11 kts 108°
2026-04-30 22:28 60.19817 11.08697 679 ft 13 kts 183°
2026-04-30 22:28 60.19720 11.08641 679 ft 16 kts 196°
2026-04-30 22:29 60.19504 11.08761 679 ft 12 kts 106°
2026-04-30 22:29 60.19484 11.08903 685 ft 10 kts 106°
2026-04-30 22:30 60.19432 11.09305 685 ft 2 kts 69°
2026-04-30 22:31 60.19477 11.09344 683 ft 1 kts 17°
2026-04-30 22:32 60.19480 11.09346 685 ft 0 kts 17°